Regional Weather Roundup
Issued by NWS Memphis, TN

Home | Current Version | Previous Version | Text Only | Print | Product List | Glossary On
Versions: 1 2 3 4 5 6 7 8 9 10 11 12 13 14 15 16 17 18 19 20 21 22 23 24 25 26 27 28 29 30 31 32 33 34 35 36 37 38 39 40 41 42 43 44 45 46 47 48 49 50
000
ASUS44 KMEG 302010
RWRMEG
MEMPHIS CWA HOURLY WEATHER ROUNDUP
NATIONAL WEATHER SERVICE MEMPHIS TN
300 PM CDT THU JUL 30 2015

...WEST TENNESSEE...

CITY           SKY/WX    TMP DP  RH WIND       PRES   REMARKS
MEMPHIS INTL   SUNNY     91  61  36 N15       30.09F HX  91
NWS MEMPHIS      N/A     88 N/A N/A MISG        N/A
JACKSON        SUNNY     92  59  33 NE14      30.10F HX  91
DYERSBURG        N/A    N/A N/A N/A MISG        N/A
PARIS          SUNNY     82  63  51 N9        30.13S


...EASTERN ARKANSAS...

CITY           SKY/WX    TMP DP  RH WIND       PRES   REMARKS
JONESBORO      SUNNY     86  65  49 NE12      30.12F
WEST MEMPHIS   SUNNY     90  64  42 NE12      30.08F HX  91
BATESVILLE     SUNNY     90  63  40 E9        30.13F HX  90
NEWPORT        SUNNY     86  68  54 N8        30.13F
WALNUT RIDGE   SUNNY     88  61  40 NE9       30.13F
BLYTHEVILLE    SUNNY     87  67  51 N13       30.11F HX  90
SEARCY         SUNNY     90  64  42 N14       30.12F HX  91
STUTTGART      SUNNY     90  66  45 N15       30.09F HX  92
PINE BLUFF     SUNNY     92  71  50 N14G21    30.07F HX  98
MONTICELLO     MOSUNNY   95  77  55 NE12G22   30.04F HX 109


...NORTH MISSISSIPPI...

CITY           SKY/WX    TMP DP  RH WIND       PRES   REMARKS
TUPELO         PTSUNNY   91  72  53 N14G20    30.04F HX  98
OLIVE BRANCH   SUNNY     90  63  40 N9        30.08F HX  90
TUNICA         SUNNY     90  66  45 N15       30.08F HX  92
CLARKSDALE     SUNNY     91  73  55 N14G21    30.07F HX 100
CORINTH        SUNNY     88  61  40 NE12      30.06F
GREENWOOD      MOSUNNY   95  75  52 N14       30.01F HX 107
COLUMBUS       SUNNY     93  76  56 N10       30.00F HX 105
STARKVILLE     FAIR      91  75  59 N6G16     30.01F HX 102
GOLDEN TRIANGL PTSUNNY   95  73  49 N14G21    30.00F HX 105


...SOUTHEAST MISSOURI...

CITY           SKY/WX    TMP DP  RH WIND       PRES   REMARKS
WEST PLAINS    MOSUNNY   85  57  38 CALM      30.20F
POPLAR BLUFF   SUNNY     88  63  43 NE6       30.13F


...NORTHWEST ALABAMA...

CITY           SKY/WX    TMP DP  RH WIND       PRES   REMARKS
MUSCLE SHOALS  MOSUNNY   90  71  53 VRB7      30.05F HX  96


...MIDDLE TENNESSEE...

CITY           SKY/WX    TMP DP  RH WIND       PRES   REMARKS
NASHVILLE      MOSUNNY   89  59  36 N13       30.08F
CLARKSVILLE    SUNNY     85  61  44 N9        30.10F
COLUMBIA       SUNNY     88  63  42 N10       30.07F


...WESTERN KENTUCKY...

CITY           SKY/WX    TMP DP  RH WIND       PRES   REMARKS
PADUCAH        SUNNY     87  63  44 NE8       30.12F
FORT CAMPBELL  SUNNY     84  62  47 N10       30.10F


...CENTRAL ARKANSAS...

CITY           SKY/WX    TMP DP  RH WIND       PRES   REMARKS
LITTLE ROCK    MOSUNNY   93  66  40 E13       30.09F HX  96


SKY/WX REPORTED AS FAIR MEANS FEW OR NO CLOUDS BELOW
12 THOUSAND FEET.




USA.gov is the U.S. government's official web portal to all federal, state and local government web resources and services.